Sidney, NE

7:13 PM MDT on September 26, 2016 (GMT -0600)
Sidney Municipal

Weather History for KSNY - May, 2013

Change the Weather History Date:

Wednesday, May 15, 2013

  Actual Average Record
Temperature  
Mean Temperature 66 °F 57 °F  
Max Temperature 81 °F 71 °F 87 °F (1984)
Min Temperature 51 °F 43 °F 30 °F (1997)
Degree Days  
Heating Degree Days 0 8  
Month to date heating degree days 209 153  
Since 1 July heating degree days 6559 6065  
Cooling Degree Days 1 1  
Month to date cooling degree days 11 6  
Year to date cooling degree days 11 7  
Growing Degree Days 16 (Base 50)    
Moisture  
Dew Point 41 °F    
Average Humidity 46    
Maximum Humidity 68    
Minimum Humidity 23    
Precipitation  
Precipitation 0.00 in 0.09 in 0.95 in (1952)
Month to date precipitation 0.20 1.46  
Year to date precipitation 2.89 5.13  
Sea Level Pressure  
Sea Level Pressure 29.80 in    
Wind  
Wind Speed 10 mph (SE)    
Max Wind Speed 20 mph    
Max Gust Speed 25 mph    
Visibility 10 miles    
Events      
T = Trace of Precipitation, MM = Missing Value Source: NWS Daily Summary

Daily Weather History Graph

Daily Weather History Graph

Search for Another Location

Airport or City:

Trip Planner

Search our weather history database for the weather conditions in past years. The results will help you decide how hot, cold, wet, or windy it might be!

Date:

Astronomy

May. 15, 2013 Rise Set
Actual Time 5:33 AM MDT 8:03 PM MDT
Civil Twilight 5:02 AM MDT 8:35 PM MDT
Nautical Twilight 4:23 AM MDT 9:14 PM MDT
Astronomical Twilight 3:39 AM MDT 9:58 PM MDT
Moon 10:11 AM MDT (5/15) No Moon Set
Length of Visible Light 15h 32m
Length of Day
14h 30m
Waxing Crescent, 27% of the Moon is Illuminated
May 15
Waxing Crescent
May 17
First Quarter
May 24
Full
May 31
Last Quarter
Jun 8
New

Hourly Weather History & Observations

Time (MDT) Temp. Dew Point Humidity Pressure Visibility Wind Dir Wind Speed Gust Speed Precip Events Conditions
12:53 AM 59.0 °F 46.9 °F 64% 29.77 in 10.0 mi SE 5.8 mph - N/A   Clear
1:53 AM 63.0 °F 46.0 °F 54% 29.75 in 10.0 mi SE 11.5 mph - N/A   Clear
2:53 AM 57.9 °F 44.1 °F 60% 29.75 in 10.0 mi SSE 9.2 mph - N/A   Clear
3:53 AM 59.0 °F 43.0 °F 55% 29.75 in 10.0 mi South 12.7 mph - N/A   Clear
4:53 AM 54.0 °F 43.0 °F 66% 29.78 in 10.0 mi Calm Calm - N/A   Clear
5:53 AM 52.0 °F 41.0 °F 66% 29.80 in 10.0 mi SSE 6.9 mph - N/A   Clear
6:53 AM 60.1 °F 43.0 °F 53% 29.81 in 10.0 mi SSE 9.2 mph - N/A   Clear
7:53 AM 68.0 °F 37.9 °F 33% 29.82 in 10.0 mi SSE 13.8 mph - N/A   Clear
8:09 AM 69.8 °F 37.4 °F 31% 29.99 in 10.0 mi East 18.4 mph 23.0 mph N/A   Clear
8:53 AM 66.9 °F 37.9 °F 34% 29.85 in 10.0 mi ESE 11.5 mph - N/A   Clear
9:53 AM 70.0 °F 36.0 °F 29% 29.84 in 10.0 mi SE 16.1 mph 23.0 mph N/A   Clear
10:53 AM 71.1 °F 36.0 °F 28% 29.84 in 10.0 mi East 16.1 mph 20.7 mph N/A   Clear
11:53 AM 75.0 °F 37.9 °F 26% 29.83 in 10.0 mi ESE 13.8 mph 23.0 mph N/A   Clear
12:53 PM 75.0 °F 39.0 °F 27% 29.84 in 10.0 mi ESE 10.4 mph 16.1 mph N/A   Clear
1:53 PM 78.1 °F 39.9 °F 25% 29.81 in 10.0 mi ESE 12.7 mph - N/A   Clear
2:53 PM 80.1 °F 39.9 °F 24% 29.79 in 10.0 mi ESE 8.1 mph - N/A   Clear
3:53 PM 80.1 °F 39.9 °F 24% 29.76 in 10.0 mi East 11.5 mph 19.6 mph N/A   Clear
4:53 PM 80.1 °F 39.9 °F 24% 29.76 in 10.0 mi East 10.4 mph 18.4 mph N/A   Clear
5:53 PM 77.0 °F 41.0 °F 28% 29.77 in 10.0 mi SE 9.2 mph - N/A   Clear
6:53 PM 73.9 °F 41.0 °F 30% 29.78 in 10.0 mi ESE 9.2 mph - N/A   Clear
7:53 PM 68.0 °F 43.0 °F 40% 29.78 in 10.0 mi East 6.9 mph - N/A   Clear
8:53 PM 66.0 °F 42.1 °F 42% 29.79 in 10.0 mi East 8.1 mph - N/A   Clear
9:53 PM 63.0 °F 42.1 °F 46% 29.82 in 10.0 mi ESE 5.8 mph - N/A   Clear
10:53 PM 63.0 °F 43.0 °F 48% 29.81 in 10.0 mi ESE 9.2 mph - N/A   Clear
11:53 PM 62.1 °F 42.1 °F 48% 29.79 in 10.0 mi ESE 11.5 mph - N/A   Clear